AZV596Z MPTO-SPZO

Flight info

Callsign AZV596Z
Flight time N/A
Altitude 33000
Route SIMAN3A SIMAN DCT TBG UM674 TOSES/N0476F330 UM674 ROBIG/N0480F320 UM674 ATATU/N0476F330 UL308 JCL UM668 DARKI
Aircraft B753/M-SDE2E3FGHIJ3J4J7RWXY/LB1

Departure

Time N/A
Airport Tocumen International Airport (MPTO)

Arrival

Time 2026-04-21 08:56
Airport Alejandro Velasco Astete International Airport (SPZO)
Time Latitude Longitude Altitude Speed Heading
2026-04-21 07:51 -9.68692 -78.03622 32994 ft 505 kts 179°
2026-04-21 07:51 -9.75665 -78.03271 32994 ft 505 kts 179°
2026-04-21 07:52 -9.82692 -78.02918 32995 ft 505 kts 179°
2026-04-21 07:52 -9.89702 -78.02566 32995 ft 505 kts 179°
2026-04-21 07:53 -9.96698 -78.02213 32997 ft 505 kts 179°
2026-04-21 07:53 -10.03699 -78.01861 32996 ft 505 kts 179°
2026-04-21 07:54 -10.10666 -78.01511 32996 ft 505 kts 179°
2026-04-21 07:54 -10.17673 -78.00950 32996 ft 506 kts 170°
2026-04-21 07:55 -10.24293 -77.98705 33000 ft 509 kts 155°
2026-04-21 07:55 -10.30724 -77.95634 32991 ft 508 kts 155°
2026-04-21 07:56 -10.37060 -77.92565 32993 ft 509 kts 154°
2026-04-21 07:56 -10.43410 -77.89471 32992 ft 508 kts 154°
2026-04-21 07:57 -10.49786 -77.86358 32994 ft 509 kts 154°
2026-04-21 07:57 -10.56139 -77.83252 32994 ft 508 kts 154°
2026-04-21 07:58 -10.62509 -77.80135 32994 ft 508 kts 154°
2026-04-21 07:58 -10.68858 -77.77027 32995 ft 509 kts 154°
2026-04-21 07:59 -10.75202 -77.73921 32996 ft 509 kts 154°
2026-04-21 07:59 -10.81561 -77.70805 32996 ft 508 kts 154°
2026-04-21 08:00 -10.87770 -77.67762 33001 ft 509 kts 154°
2026-04-21 08:00 -10.94149 -77.64632 33002 ft 512 kts 155°
2026-04-21 08:01 -11.00576 -77.61478 33003 ft 517 kts 155°
2026-04-21 08:02 -11.10321 -77.56694 33003 ft 519 kts 155°
2026-04-21 08:02 -11.16758 -77.53533 32997 ft 518 kts 156°
2026-04-21 08:03 -11.23213 -77.50361 32998 ft 518 kts 155°
2026-04-21 08:03 -11.29691 -77.47178 32999 ft 518 kts 156°
2026-04-21 08:04 -11.36151 -77.44001 33000 ft 518 kts 156°
2026-04-21 08:04 -11.42635 -77.40811 33000 ft 518 kts 156°
2026-04-21 08:05 -11.49084 -77.37637 33001 ft 518 kts 156°
2026-04-21 08:05 -11.55588 -77.34434 32998 ft 518 kts 155°
2026-04-21 08:06 -11.62037 -77.31256 32995 ft 518 kts 155°
2026-04-21 08:06 -11.68496 -77.28072 32996 ft 518 kts 155°
2026-04-21 08:07 -11.74979 -77.24874 32997 ft 518 kts 155°
2026-04-21 08:07 -11.81435 -77.21688 32997 ft 518 kts 155°
2026-04-21 08:08 -11.87919 -77.18488 32998 ft 519 kts 155°
2026-04-21 08:08 -11.94417 -77.15276 32999 ft 518 kts 155°
2026-04-21 08:09 -12.00709 -77.11810 33008 ft 519 kts 145°
2026-04-21 08:09 -12.05954 -77.06775 33011 ft 520 kts 127°
2026-04-21 08:10 -12.10008 -77.00684 33001 ft 518 kts 121°
2026-04-21 08:10 -12.13898 -76.94516 32993 ft 517 kts 121°
2026-04-21 08:11 -12.17743 -76.88349 32994 ft 516 kts 120°
2026-04-21 08:11 -12.21576 -76.82176 32995 ft 514 kts 120°
2026-04-21 08:12 -12.25393 -76.76017 32995 ft 513 kts 120°
2026-04-21 08:12 -12.29191 -76.69881 32996 ft 514 kts 120°
2026-04-21 08:13 -12.32996 -76.63731 32997 ft 514 kts 120°
2026-04-21 08:13 -12.36824 -76.57539 32998 ft 513 kts 120°
2026-04-21 08:14 -12.40614 -76.51404 32998 ft 514 kts 120°
2026-04-21 08:14 -12.44439 -76.45213 32998 ft 513 kts 120°
2026-04-21 08:15 -12.48219 -76.39085 33000 ft 514 kts 120°
2026-04-21 08:15 -12.52041 -76.32885 32995 ft 514 kts 120°
2026-04-21 08:16 -12.55827 -76.26741 32995 ft 514 kts 120°
2026-04-21 08:16 -12.59625 -76.20573 32997 ft 514 kts 120°
2026-04-21 08:17 -12.63436 -76.14383 32997 ft 514 kts 120°
2026-04-21 08:17 -12.67218 -76.08235 32997 ft 514 kts 120°
2026-04-21 08:18 -12.71018 -76.02047 32998 ft 514 kts 120°
2026-04-21 08:18 -12.74360 -75.95654 33009 ft 508 kts 107°
2026-04-21 08:19 -12.76243 -75.88704 33000 ft 506 kts 101°
2026-04-21 08:19 -12.77922 -75.81734 33001 ft 506 kts 100°
2026-04-21 08:20 -12.79574 -75.74750 33000 ft 505 kts 100°
2026-04-21 08:20 -12.81213 -75.67764 33001 ft 505 kts 100°
2026-04-21 08:21 -12.82800 -75.60985 33001 ft 505 kts 100°
2026-04-21 08:21 -12.84415 -75.54069 33001 ft 505 kts 100°
2026-04-21 08:22 -12.86041 -75.47096 33002 ft 505 kts 100°
2026-04-21 08:22 -12.87664 -75.40126 33003 ft 505 kts 100°
2026-04-21 08:23 -12.89289 -75.33137 32999 ft 505 kts 99°
2026-04-21 08:23 -12.90910 -75.26161 32999 ft 505 kts 99°
2026-04-21 08:24 -12.92534 -75.19162 33000 ft 505 kts 99°
2026-04-21 08:24 -12.94157 -75.12160 32999 ft 505 kts 100°
2026-04-21 08:25 -12.95767 -75.05202 33000 ft 503 kts 99°
2026-04-21 08:25 -12.97369 -74.98270 33001 ft 502 kts 99°
2026-04-21 08:26 -12.98974 -74.91316 33002 ft 502 kts 99°
2026-04-21 08:26 -13.00581 -74.84345 33002 ft 503 kts 99°
2026-04-21 08:27 -13.02181 -74.77390 33003 ft 505 kts 99°
2026-04-21 08:27 -13.03796 -74.70363 33004 ft 507 kts 99°
2026-04-21 08:28 -13.05418 -74.63301 33005 ft 509 kts 99°
2026-04-21 08:28 -13.07032 -74.56260 33006 ft 511 kts 99°
2026-04-21 08:29 -13.08652 -74.49189 33007 ft 514 kts 99°
2026-04-21 08:29 -13.10285 -74.42047 33002 ft 516 kts 99°
2026-04-21 08:30 -13.11927 -74.34861 32997 ft 518 kts 98°
2026-04-21 08:30 -13.13568 -74.27668 32989 ft 518 kts 98°
2026-04-21 08:31 -13.15200 -74.20501 32990 ft 518 kts 98°
2026-04-21 08:31 -13.16834 -74.13317 33005 ft 518 kts 98°
2026-04-21 08:32 -13.18467 -74.06127 33142 ft 519 kts 98°
2026-04-21 08:32 -13.20097 -73.98940 33280 ft 520 kts 98°
2026-04-21 08:33 -13.21739 -73.91692 33420 ft 521 kts 98°
2026-04-21 08:33 -13.23380 -73.84438 33454 ft 522 kts 98°
2026-04-21 08:34 -13.25011 -73.77216 33455 ft 521 kts 98°
2026-04-21 08:34 -13.26638 -73.70005 33456 ft 521 kts 98°
2026-04-21 08:35 -13.28276 -73.62735 33457 ft 521 kts 99°
2026-04-21 08:35 -13.29902 -73.55507 33457 ft 521 kts 99°
2026-04-21 08:36 -13.31519 -73.48309 33458 ft 520 kts 98°
2026-04-21 08:36 -13.32846 -73.42391 33459 ft 520 kts 98°
2026-04-21 08:37 -13.34024 -73.37135 33459 ft 521 kts 98°
2026-04-21 08:37 -13.35650 -73.29874 33451 ft 520 kts 98°
2026-04-21 08:38 -13.37259 -73.22673 33452 ft 520 kts 98°
2026-04-21 08:38 -13.38870 -73.15455 33453 ft 519 kts 98°
2026-04-21 08:39 -13.40471 -73.08275 33454 ft 516 kts 98°
2026-04-21 08:39 -13.42064 -73.01115 33455 ft 513 kts 98°
2026-04-21 08:40 -13.43642 -72.94015 33455 ft 510 kts 98°
2026-04-21 08:40 -13.45221 -72.86900 33457 ft 511 kts 98°
2026-04-21 08:41 -13.46644 -72.79771 33017 ft 514 kts 91°
2026-04-21 08:41 -13.46785 -72.76109 32417 ft 505 kts 82°
2026-04-21 08:41 -13.46414 -72.72611 31837 ft 495 kts 73°
2026-04-21 08:41 -13.45586 -72.69212 31265 ft 494 kts 69°
2026-04-21 08:42 -13.44768 -72.65733 30684 ft 498 kts 73°
2026-04-21 08:42 -13.44157 -72.62250 30124 ft 499 kts 76°
2026-04-21 08:42 -13.43649 -72.58730 29573 ft 498 kts 77°
2026-04-21 08:42 -13.43201 -72.55211 29043 ft 500 kts 78°
2026-04-21 08:43 -13.42792 -72.51682 28517 ft 497 kts 79°
2026-04-21 08:43 -13.42407 -72.48184 27892 ft 496 kts 79°
2026-04-21 08:43 -13.42035 -72.44675 27292 ft 491 kts 79°
2026-04-21 08:43 -13.41681 -72.41257 26760 ft 485 kts 80°
2026-04-21 08:44 -13.41340 -72.37867 26613 ft 474 kts 80°
2026-04-21 08:44 -13.40999 -72.34467 26621 ft 481 kts 80°
2026-04-21 08:44 -13.40657 -72.31064 26620 ft 481 kts 80°
2026-04-21 08:44 -13.40320 -72.27675 26551 ft 467 kts 80°
2026-04-21 08:45 -13.39993 -72.24379 25894 ft 466 kts 80°
2026-04-21 08:45 -13.39672 -72.21107 25292 ft 465 kts 82°
2026-04-21 08:45 -13.39555 -72.17773 24553 ft 473 kts 85°
2026-04-21 08:45 -13.39477 -72.14405 23803 ft 472 kts 84°
2026-04-21 08:46 -13.39370 -72.11049 23054 ft 471 kts 84°
2026-04-21 08:46 -13.39251 -72.07687 22302 ft 470 kts 84°
2026-04-21 08:46 -13.39127 -72.04359 21556 ft 469 kts 84°
2026-04-21 08:46 -13.38999 -72.01021 20837 ft 460 kts 85°
2026-04-21 08:47 -13.38880 -71.97862 20459 ft 428 kts 84°
2026-04-21 08:47 -13.38763 -71.94892 19699 ft 410 kts 84°
2026-04-21 08:47 -13.38649 -71.92044 18944 ft 394 kts 84°
2026-04-21 08:47 -13.38537 -71.89281 18373 ft 375 kts 84°
2026-04-21 08:48 -13.38437 -71.86761 18350 ft 343 kts 84°
2026-04-21 08:48 -13.38344 -71.84426 18345 ft 314 kts 84°
2026-04-21 08:48 -13.38254 -71.82230 18307 ft 304 kts 84°
2026-04-21 08:48 -13.38159 -71.80026 18341 ft 310 kts 84°
2026-04-21 08:49 -13.38068 -71.77834 18311 ft 309 kts 84°
2026-04-21 08:49 -13.37979 -71.75620 18005 ft 316 kts 85°
2026-04-21 08:49 -13.38124 -71.73396 17625 ft 316 kts 99°
2026-04-21 08:49 -13.38825 -71.71277 17388 ft 313 kts 116°
2026-04-21 08:50 -13.40019 -71.69432 17187 ft 310 kts 130°
2026-04-21 08:50 -13.41611 -71.67924 16992 ft 310 kts 144°
2026-04-21 08:50 -13.43489 -71.66836 16792 ft 311 kts 159°
2026-04-21 08:50 -13.45543 -71.66213 16572 ft 309 kts 172°
2026-04-21 08:51 -13.47673 -71.66079 16330 ft 306 kts 186°
2026-04-21 08:51 -13.49730 -71.66422 16072 ft 302 kts 199°
2026-04-21 08:51 -13.51662 -71.67217 15794 ft 298 kts 212°
2026-04-21 08:51 -13.53369 -71.68400 15525 ft 294 kts 220°
2026-04-21 08:52 -13.54874 -71.69774 15217 ft 292 kts 228°
2026-04-21 08:52 -13.56362 -71.71208 14942 ft 290 kts 221°
2026-04-21 08:52 -13.57757 -71.72676 14480 ft 291 kts 240°
2026-04-21 08:52 -13.58578 -71.74500 14225 ft 278 kts 257°
2026-04-21 08:53 -13.58856 -71.76420 13846 ft 268 kts 272°
2026-04-21 08:53 -13.58633 -71.78294 13523 ft 261 kts 287°
2026-04-21 08:53 -13.58045 -71.79996 13272 ft 249 kts 296°
2026-04-21 08:53 -13.57271 -71.81576 12725 ft 244 kts 297°
2026-04-21 08:54 -13.56646 -71.83119 12543 ft 225 kts 293°
2026-04-21 08:54 -13.56107 -71.84543 12390 ft 201 kts 290°
2026-04-21 08:54 -13.55645 -71.85812 12105 ft 186 kts 297°
2026-04-21 08:54 -13.54924 -71.86898 11479 ft 187 kts 311°
2026-04-21 08:55 -13.54212 -71.87946 11248 ft 172 kts 294°
2026-04-21 08:55 -13.53875 -71.89112 11305 ft 174 kts 276°
2026-04-21 08:55 -13.53943 -71.90382 11173 ft 175 kts 267°
2026-04-21 08:55 -13.53806 -71.91567 10935 ft 162 kts 277°
2026-04-21 08:56 -13.53692 -71.92723 10873 ft 163 kts 275°
2026-04-21 08:56 -13.53582 -71.93765 10870 ft 123 kts 276°
2026-04-21 08:56 -13.53509 -71.94498 10870 ft 82 kts 276°
2026-04-21 08:56 -13.53463 -71.94957 10869 ft 34 kts 275°
2026-04-21 08:57 -13.53447 -71.95128 10869 ft 13 kts 275°
2026-04-21 08:57 -13.53439 -71.95209 10869 ft 9 kts 275°
2026-04-21 08:57 -13.53433 -71.95276 10869 ft 12 kts 275°
2026-04-21 08:57 -13.53427 -71.95377 10869 ft 13 kts 261°